Terminal Aerodrome Forecast
Issued by NWS Corpus Christi, TX

Home | Current Version | Previous Version | Text Only | Print | Product List | Glossary On
Versions: 1 2 3 4 5 6 7 8 9 10 11 12 13 14
000
FTUS44 KCRP 270520
TAFCRP
TAF
KCRP 270520Z 2706/2806 10006KT P6SM SCT017
     FM271400 05009KT P6SM VCSH SCT025 BKN040
     FM271700 09008KT P6SM VCTS SCT035CB PROB30 2717/2722 VRB20G30KT
      3SM TSRA BKN030CB
     FM272200 09012G16KT P6SM SCT040 BKN250
     FM280200 VRB06KT P6SM SCT035 BKN250=

USA.gov is the U.S. government's official web portal to all federal, state and local government web resources and services.